Date,TemperatureHighF,TemperatureAvgF,TemperatureLowF,DewpointHighF,DewpointAvgF,DewpointLowF,HumidityHigh,HumidityAvg,HumidityLow,PressureMaxIn,PressureMinIn,WindSpeedMaxMPH,WindSpeedAvgMPH,GustSpeedMaxMPH,PrecipitationSumIn
2013-1-1,41.3,38.5,34.4,31.2,29.9,26.0,79,71,64,30.02,29.89,10,1,11,0.01
2013-1-2,34.8,30.1,25.0,26.3,19.1,14.0,76,64,47,30.23,29.98,15,3,16,0.00
2013-1-3,36.9,28.4,17.3,22.8,18.6,13.3,88,67,52,30.24,30.11,9,1,9,0.00
2013-1-4,40.7,34.5,30.2,25.5,23.2,21.7,76,63,54,30.19,30.08,17,2,17,0.00
2013-1-5,41.5,35.7,31.2,26.8,24.1,21.1,72,63,52,30.36,30.13,15,2,17,0.00
2013-1-6,46.7,39.0,28.9,32.3,29.0,24.3,87,68,53,30.16,30.00,9,1,10,0.00
2013-1-7,42.4,37.7,28.4,33.7,27.7,23.3,83,67,57,30.42,30.13,15,2,17,0.00
2013-1-8,51.2,36.4,25.1,35.9,29.0,22.0,90,75,53,30.39,30.32,8,0,8,0.00
2013-1-9,48.0,35.2,25.7,40.0,31.3,23.9,96,86,56,30.38,30.20,9,0,11,0.00
2013-1-10,50.7,43.7,37.1,33.9,30.9,27.4,72,61,49,30.59,30.38,12,1,12,0.00
2013-1-11,44.9,41.6,39.4,40.9,35.5,30.4,97,80,63,30.45,30.07,11,1,11,0.08
2013-1-12,58.4,46.2,39.2,51.2,43.9,38.4,99,92,76,30.15,30.06,4,0,4,0.00
2013-1-13,58.7,51.0,42.6,54.3,49.2,41.3,98,94,82,30.07,29.90,7,0,9,0.00
2013-1-14,52.8,48.1,38.3,51.3,42.5,31.6,99,82,57,30.30,29.90,17,3,18,0.24
2013-1-15,39.7,37.5,33.9,36.9,35.1,32.2,96,91,81,30.33,30.14,8,0,8,0.48
2013-1-16,37.7,35.3,32.9,37.2,34.5,31.9,98,97,95,30.14,29.83,12,0,13,0.63
2013-1-17,41.8,38.5,34.9,38.1,31.3,27.5,98,76,57,30.12,29.96,13,2,14,0.00
2013-1-18,36.8,32.1,27.8,29.9,19.3,13.0,80,59,42,30.48,30.04,26,4,26,0.00
2013-1-19,57.7,41.5,28.7,34.2,27.8,21.0,80,60,32,30.35,29.89,17,3,18,0.00
2013-1-20,50.7,38.8,31.6,33.9,21.5,14.1,71,51,26,30.07,29.79,21,3,22,0.00
2013-1-21,40.9,31.3,24.6,24.1,18.5,10.2,73,59,44,30.08,29.79,24,4,27,0.00
2013-1-22,24.5,17.2,12.8,10.2,1.2,-3.4,61,49,39,30.28,29.96,23,6,24,0.00
2013-1-23,24.9,17.3,10.7,11.1,3.0,0.4,70,53,38,30.34,30.12,15,2,16,0.00
2013-1-24,25.5,19.5,14.6,14.1,9.0,1.3,89,65,43,30.51,30.08,22,4,22,0.00
2013-1-25,21.5,18.0,15.0,16.4,9.3,1.6,88,69,51,30.51,30.05,12,1,13,0.00
2013-1-26,31.5,24.1,18.4,24.8,20.5,15.4,92,86,71,30.43,30.07,5,0,6,0.03
2013-1-27,34.3,28.3,19.4,23.5,19.1,14.0,83,68,58,30.58,30.43,10,1,10,0.01
2013-1-28,41.1,35.2,31.0,40.0,32.3,23.4,96,89,72,30.44,30.01,9,1,11,0.14
2013-1-29,68.4,56.5,41.1,57.0,50.5,40.0,96,81,66,30.08,29.90,15,2,15,0.00
2013-1-30,68.8,59.1,55.1,62.4,55.8,51.2,98,89,76,29.91,29.17,30,4,30,1.69
2013-1-31,55.1,38.7,28.2,54.7,27.2,12.3,99,64,49,29.87,29.14,28,5,28,0.35
2013-2-1,29.6,23.4,17.0,23.4,11.6,5.8,92,61,49,30.36,29.80,32,6,32,0.00
2013-2-2,27.1,20.7,12.4,22.8,13.2,5.1,86,72,59,30.37,29.99,11,2,14,0.00
2013-2-3,34.1,27.4,20.7,29.5,23.5,16.4,94,86,62,30.00,29.80,23,2,24,0.00
2013-2-4,35.9,29.4,23.4,28.1,18.2,12.5,90,63,50,30.07,29.86,20,3,21,0.00
2013-2-5,36.7,32.4,30.3,34.0,30.1,27.6,95,91,88,29.92,29.83,5,0,5,0.01
2013-2-6,38.1,33.7,27.1,32.3,27.5,21.1,96,78,64,30.33,29.91,13,2,15,0.00
2013-2-7,39.1,31.6,24.3,28.9,24.2,20.0,86,74,61,30.41,30.19,12,1,13,0.00
2013-2-8,39.7,34.9,32.3,36.2,30.2,23.4,94,83,67,30.19,29.77,27,4,31,0.00
2013-2-9,38.0,31.5,26.9,24.0,19.3,16.2,72,61,45,30.38,29.95,27,8,34,0.00
2013-2-10,44.1,32.7,17.3,25.2,19.9,13.9,91,61,40,30.45,30.17,13,2,15,0.00
2013-2-11,59.2,47.1,34.8,50.0,38.6,25.2,96,76,32,30.17,29.64,26,3,26,0.12
2013-2-12,54.2,46.5,34.4,33.0,29.5,26.7,75,52,39,29.97,29.81,25,4,27,0.00
2013-2-13,41.9,34.1,26.7,33.3,29.0,23.6,96,82,63,29.92,29.64,8,0,8,0.05
2013-2-14,48.7,38.2,29.6,34.5,30.7,26.0,97,75,54,29.99,29.77,9,1,10,0.07
2013-2-15,54.7,40.5,34.0,37.5,32.8,27.3,95,75,49,30.01,29.90,16,1,19,0.17
2013-2-16,35.7,32.5,28.1,33.8,25.9,17.6,96,78,56,29.98,29.85,18,3,18,0.00
2013-2-17,29.2,25.4,22.0,19.0,13.3,7.2,74,60,47,30.22,29.85,28,7,28,0.00
2013-2-18,42.0,30.1,16.3,22.6,13.3,6.8,73,50,36,30.37,30.09,20,2,20,0.00
2013-2-19,48.4,40.1,33.6,41.7,29.0,20.1,87,65,47,30.09,29.64,20,4,23,0.04
2013-2-20,35.7,28.7,24.2,22.6,15.1,10.5,61,56,52,30.16,29.84,30,7,30,0.00
2013-2-21,35.7,28.0,23.1,19.3,15.6,11.3,72,60,49,30.33,30.11,23,6,25,0.00
2013-2-22,31.4,28.6,24.8,28.8,23.5,17.5,90,81,68,30.37,30.17,11,1,11,0.00
2013-2-23,45.7,36.8,31.4,40.5,34.4,28.8,96,91,81,30.18,29.80,5,0,6,0.02
2013-2-24,47.2,37.9,28.6,37.6,29.8,20.2,96,74,49,30.11,29.78,22,4,22,0.00
2013-2-25,46.1,34.5,22.4,28.0,23.4,18.4,88,65,45,30.21,30.11,7,0,8,0.00
2013-2-26,40.3,36.0,30.3,39.0,31.3,23.1,97,83,71,30.19,29.62,18,1,19,0.89
2013-2-27,52.4,42.9,35.7,43.1,36.4,33.9,98,80,54,29.67,29.53,17,2,21,0.04
2013-2-28,42.8,40.1,35.4,35.9,30.5,27.4,80,69,60,29.71,29.61,15,2,15,0.00
2013-3-1,40.7,37.6,32.9,32.7,28.9,23.9,81,71,57,29.89,29.71,18,5,18,0.00
2013-3-2,33.7,31.4,29.4,24.8,23.0,21.3,76,71,64,29.89,29.82,17,6,18,0.00
2013-3-3,37.1,31.7,28.2,23.1,20.8,18.4,78,64,52,29.92,29.80,21,7,22,0.00
2013-3-4,40.5,32.6,26.6,22.0,18.9,15.1,67,57,44,30.03,29.92,23,6,27,0.00
2013-3-5,49.9,37.0,25.0,27.6,21.8,16.2,79,56,28,30.07,29.78,14,1,17,0.00
2013-3-6,40.3,36.0,32.5,34.4,32.2,27.6,97,87,66,30.01,29.66,23,4,26,0.79
2013-3-7,45.2,40.3,36.1,31.5,29.8,27.0,77,66,53,30.16,30.01,23,6,23,0.00
2013-3-8,46.9,40.0,35.2,31.4,28.7,24.9,76,64,52,30.29,30.14,26,8,31,0.00
2013-3-9,59.5,43.2,31.1,31.8,27.3,23.9,78,56,30,30.36,30.23,10,1,10,0.00
2013-3-10,63.7,47.1,28.8,35.4,29.6,24.5,88,55,31,30.29,30.15,19,3,19,0.00
2013-3-11,59.0,51.2,42.1,49.9,41.2,28.3,87,70,43,30.17,29.82,21,4,22,0.00
2013-3-12,57.5,50.0,41.0,52.9,43.1,29.8,96,78,62,29.95,29.71,22,7,24,0.89
2013-3-13,48.2,38.7,30.2,32.7,26.4,20.6,85,62,39,30.05,29.88,26,4,28,0.00
2013-3-14,41.4,35.3,30.3,22.0,19.5,17.3,65,53,40,30.12,30.02,27,8,29,0.00
2013-3-15,56.5,43.4,29.1,38.0,28.0,20.1,73,55,40,30.08,29.75,16,2,17,0.00
2013-3-16,48.7,41.8,35.4,39.6,35.4,32.9,92,79,61,29.91,29.62,12,2,16,0.00
2013-3-17,39.7,36.3,34.3,33.6,28.8,23.2,92,75,58,30.24,29.90,14,2,15,0.00
2013-3-18,35.9,33.3,30.2,31.7,28.1,22.8,96,82,61,30.29,29.88,11,1,14,0.00
2013-3-19,56.2,41.0,32.1,42.1,29.4,16.6,98,70,27,29.91,29.70,27,3,27,0.32
2013-3-20,50.0,40.7,31.5,29.1,20.4,15.7,76,45,30,29.96,29.73,28,4,28,0.00
2013-3-21,35.7,30.3,25.4,28.6,16.0,10.4,75,55,43,29.89,29.76,22,5,22,0.00
2013-3-22,42.4,33.7,24.0,23.0,19.3,12.7,67,56,45,30.00,29.86,21,4,21,0.00
2013-3-23,51.1,38.1,24.1,28.4,23.9,18.6,85,58,38,30.02,29.90,16,3,22,0.00
2013-3-24,41.5,34.1,26.8,31.5,25.6,21.0,94,72,54,29.99,29.62,7,0,7,0.00
2013-3-25,39.2,34.4,32.1,36.1,32.6,30.9,96,93,84,29.69,29.51,5,0,5,0.50
2013-3-26,47.2,39.0,30.8,38.2,31.3,27.1,98,76,46,29.99,29.68,18,3,22,0.14
2013-3-27,46.4,40.4,34.7,32.3,29.5,26.8,80,66,48,30.11,29.99,21,4,22,0.00
2013-3-28,45.4,40.7,33.9,34.3,31.5,27.3,80,70,60,30.22,30.06,22,4,22,0.00
2013-3-29,54.6,45.2,38.0,36.8,32.0,28.6,79,61,39,30.24,30.11,15,2,16,0.00
2013-3-30,59.0,44.2,29.2,34.8,28.3,22.9,93,58,29,30.22,30.07,12,1,12,0.00
2013-3-31,47.7,45.4,41.3,46.6,38.3,23.3,97,78,48,30.07,29.72,11,1,13,0.20
2013-4-1,58.4,45.5,38.0,47.1,36.1,19.1,97,72,43,29.97,29.72,24,4,26,0.00
2013-4-2,46.1,37.3,27.5,25.2,19.7,16.9,76,50,34,30.16,29.97,19,3,21,0.00
2013-4-3,47.6,36.4,26.2,24.4,19.7,15.9,76,53,31,30.39,30.16,21,4,25,0.00
2013-4-4,49.2,36.8,21.5,26.0,19.0,14.2,80,50,31,30.40,30.04,13,2,16,0.00
2013-4-5,62.0,48.4,33.7,36.2,30.4,22.5,89,54,32,30.05,29.80,22,4,23,0.00
2013-4-6,55.7,45.0,33.7,30.9,25.5,21.6,67,47,31,30.30,30.04,14,2,15,0.00
2013-4-7,70.1,55.6,41.8,47.3,38.2,25.8,66,52,42,30.20,29.90,19,6,21,0.00
2013-4-8,79.8,67.6,55.0,54.8,49.1,45.1,72,53,34,30.04,29.88,15,2,16,0.00
2013-4-9,84.3,73.1,62.0,60.8,55.2,49.6,68,54,40,30.04,29.86,13,2,13,0.00
2013-4-10,89.4,77.7,63.1,64.4,58.8,53.0,70,53,38,29.92,29.71,13,2,16,0.00
2013-4-11,83.4,70.4,56.7,63.7,58.6,53.2,92,68,47,29.86,29.66,17,2,21,0.00
2013-4-12,69.5,56.4,50.4,63.4,53.9,41.6,98,91,69,29.77,29.54,18,3,18,0.52
2013-4-13,67.8,55.9,45.2,43.3,38.4,32.8,79,54,34,29.94,29.77,12,2,18,0.00
2013-4-14,64.1,49.5,40.2,40.8,36.2,33.2,85,62,38,30.13,29.94,16,2,16,0.00
2013-4-15,64.9,59.8,55.0,54.0,50.0,44.7,74,70,62,30.23,30.12,13,3,14,0.00
2013-4-16,75.0,64.0,55.5,62.9,56.3,48.3,89,77,63,30.24,30.05,18,4,19,0.01
2013-4-17,71.2,64.1,56.9,64.6,59.1,54.5,99,85,70,30.18,30.08,12,1,13,0.29
2013-4-18,75.3,65.4,59.0,66.8,59.4,55.4,95,82,64,30.18,29.91,15,3,15,0.01
2013-4-19,74.4,65.4,52.5,66.6,59.1,40.9,95,80,63,29.92,29.53,26,6,27,0.58
2013-4-20,57.3,50.2,42.7,41.1,32.6,28.0,65,51,37,30.33,29.75,20,5,21,0.00
2013-4-21,54.6,44.2,34.1,33.6,28.4,24.5,73,55,38,30.58,30.33,12,1,13,0.00
2013-4-22,58.7,47.5,36.8,40.1,34.8,28.7,85,62,44,30.55,30.35,13,1,15,0.00
2013-4-23,60.7,47.3,36.3,47.4,39.5,32.8,89,75,58,30.39,30.07,8,0,8,0.00
2013-4-24,76.2,58.8,42.9,60.2,51.1,39.8,94,77,51,30.08,29.70,24,3,26,0.12
2013-4-25,63.0,52.0,42.5,43.5,36.2,33.3,74,56,36,30.28,30.01,23,3,26,0.00
2013-4-26,64.4,51.5,38.1,42.2,37.5,34.1,91,61,38,30.45,30.27,10,1,12,0.00
2013-4-27,71.0,55.8,37.1,47.3,41.4,34.8,93,62,38,30.39,30.23,10,1,12,0.00
2013-4-28,61.1,55.0,51.8,50.2,45.1,39.1,93,70,51,30.24,30.09,17,2,18,0.19
2013-4-29,60.5,55.6,52.2,58.2,53.6,49.3,97,93,80,30.10,30.00,11,1,12,0.16
2013-4-30,60.1,56.6,53.9,57.4,54.8,52.8,100,94,89,30.26,30.06,10,0,10,0.00
2013-5-1,71.3,60.1,48.9,54.0,44.9,37.6,97,62,33,30.39,30.26,15,1,15,0.00
2013-5-2,71.1,57.3,41.3,51.7,46.1,39.0,96,69,43,30.40,30.27,13,1,13,0.00
2013-5-3,69.5,56.3,43.7,50.7,46.0,41.8,94,71,45,30.35,30.24,14,2,15,0.00
2013-5-4,69.1,55.8,42.8,49.2,44.5,39.9,93,68,44,30.31,30.13,14,1,15,0.00
2013-5-5,66.1,53.4,43.8,48.1,43.0,40.1,88,69,47,30.21,30.09,12,1,14,0.00
2013-5-6,62.6,54.8,44.7,57.3,50.7,41.6,92,86,81,30.15,30.02,12,1,12,0.01
2013-5-7,63.7,60.3,58.4,62.3,58.6,56.7,97,94,90,30.03,29.90,13,1,13,1.17
2013-5-8,71.0,60.7,54.6,60.2,56.1,52.4,99,86,63,29.97,29.88,9,1,11,0.41
2013-5-9,73.0,60.5,50.4,64.2,56.2,49.6,98,87,63,29.97,29.88,10,0,10,0.13
2013-5-10,82.7,64.9,51.8,66.6,58.9,50.7,99,83,47,29.98,29.81,20,1,24,0.60
2013-5-11,74.4,65.1,59.9,66.7,61.3,54.2,99,89,63,29.84,29.68,14,1,19,0.44
2013-5-12,60.6,55.5,44.6,54.3,39.8,31.3,88,57,38,30.00,29.73,21,4,21,0.00
2013-5-13,58.0,48.4,38.7,34.7,31.5,27.1,81,54,33,30.15,29.99,19,3,21,0.00
2013-5-14,63.1,48.6,31.0,42.8,36.5,28.4,95,66,39,30.21,30.00,12,0,12,0.00
2013-5-15,84.3,66.7,49.5,69.4,53.7,40.0,84,64,48,30.00,29.63,14,1,14,0.00
2013-5-16,78.7,73.2,63.7,66.0,60.9,56.3,81,66,51,29.91,29.71,10,1,14,0.00
2013-5-17,81.8,69.3,53.9,65.4,58.4,51.7,98,70,48,30.08,29.90,9,0,11,0.00
2013-5-18,69.9,63.9,58.7,61.0,56.5,50.9,94,78,52,30.17,30.07,13,2,13,0.00
2013-5-19,71.2,63.8,58.2,66.3,61.7,56.8,98,93,84,30.17,30.04,7,0,8,0.00
2013-5-20,81.3,72.3,63.2,70.9,66.8,62.3,98,84,66,30.07,29.92,9,1,11,0.00
2013-5-21,87.0,75.6,64.7,74.9,69.3,63.8,98,82,62,29.95,29.80,12,1,13,0.00
2013-5-22,89.0,75.8,66.0,73.1,68.9,64.2,98,81,50,29.90,29.75,17,1,17,0.31
2013-5-23,79.1,68.8,64.3,71.0,66.2,63.3,99,92,72,29.85,29.69,12,1,12,0.27
2013-5-24,64.3,54.2,45.8,63.4,46.8,34.2,98,77,58,30.17,29.71,25,8,28,0.02
2013-5-25,63.4,50.8,41.8,42.8,37.0,33.5,76,60,41,30.19,30.08,22,7,24,0.00
2013-5-26,70.0,58.1,45.8,44.2,40.2,36.2,75,53,32,30.20,30.10,16,3,20,0.00
2013-5-27,67.7,56.4,41.4,53.4,46.9,39.6,97,72,47,30.27,30.15,6,0,7,0.00
2013-5-28,78.5,65.0,54.6,68.7,60.0,50.8,96,85,68,30.17,30.00,7,0,8,0.09
2013-5-29,89.0,75.5,60.0,71.2,65.9,59.2,99,74,47,30.08,30.01,8,1,13,0.00
2013-5-30,90.3,78.8,67.9,72.6,68.3,63.9,89,72,50,30.14,30.04,10,1,10,0.00
2013-5-31,89.0,78.1,66.7,69.3,66.5,62.4,92,70,42,30.11,29.96,13,2,13,0.00
2013-6-1,89.0,79.4,68.6,74.3,68.7,64.4,89,71,55,29.99,29.84,13,2,13,0.00
2013-6-2,81.3,74.0,69.5,74.1,68.5,64.2,95,83,72,29.84,29.77,11,1,13,0.45
2013-6-3,77.8,70.8,64.1,69.4,64.6,55.5,99,82,61,29.94,29.80,14,2,14,0.52
2013-6-4,75.9,64.6,52.4,56.5,51.7,46.3,88,65,42,30.10,29.94,13,1,13,0.00
2013-6-5,78.3,66.3,51.7,61.9,56.6,49.8,97,73,53,30.14,29.99,15,1,15,0.00
2013-6-6,68.2,64.7,62.9,64.2,59.0,50.2,98,83,60,30.01,29.82,16,1,16,0.80
2013-6-7,68.7,65.3,63.1,68.3,64.8,62.4,100,98,96,29.82,29.61,13,1,14,0.45
2013-6-8,78.7,69.3,63.7,65.6,62.3,59.1,97,79,61,30.06,29.70,12,2,12,0.00
2013-6-9,79.8,69.8,60.7,69.9,64.3,58.5,96,84,66,30.16,30.05,9,1,10,0.02
2013-6-10,80.7,70.8,67.5,75.8,69.1,64.7,99,95,81,30.06,29.72,12,1,14,0.90
2013-6-11,79.3,71.6,64.0,69.8,66.4,63.7,100,85,68,29.81,29.74,16,1,16,0.01
2013-6-12,88.7,76.1,64.8,73.5,68.4,62.9,96,79,53,29.83,29.73,11,1,12,0.04
2013-6-13,82.0,71.7,67.3,71.8,66.6,57.3,98,85,66,29.75,29.44,22,3,23,0.50
2013-6-14,78.3,69.1,62.1,61.1,57.1,54.6,80,67,47,29.95,29.59,17,4,22,0.00
2013-6-15,81.3,69.1,55.9,63.3,57.7,52.5,98,70,38,30.06,29.95,12,1,12,0.00
2013-6-16,80.2,70.8,61.6,70.7,63.9,58.0,93,79,65,30.00,29.84,10,1,11,0.00
2013-6-17,86.0,76.4,66.6,73.2,67.8,62.8,92,76,56,29.92,29.83,11,0,12,0.00
2013-6-18,77.3,71.7,65.4,72.9,68.7,63.7,95,90,82,29.87,29.74,11,0,11,0.45
2013-6-19,79.0,69.1,61.4,64.7,62.3,59.6,98,81,53,30.11,29.85,7,0,7,0.09
2013-6-20,79.5,69.6,59.0,68.0,63.0,57.0,99,81,63,30.21,30.10,16,2,16,0.00
2013-6-21,82.9,72.6,60.6,65.8,59.7,53.3,86,64,53,30.25,30.17,12,1,13,0.00
2013-6-22,86.8,75.4,64.5,71.7,66.7,56.2,96,76,57,30.20,30.07,9,1,11,0.00
2013-6-23,87.0,76.7,65.5,74.3,69.8,64.3,98,81,61,30.14,30.01,8,0,9,0.00
2013-6-24,90.0,77.1,68.8,75.5,70.5,66.7,95,81,57,30.09,29.98,14,1,17,0.00
2013-6-25,91.4,79.0,67.7,76.6,70.9,64.6,96,78,54,30.00,29.83,30,1,31,0.03
2013-6-26,88.3,74.7,64.7,77.0,69.2,63.8,98,84,57,29.90,29.77,9,1,9,0.00
2013-6-27,81.9,74.9,68.0,75.5,70.7,67.1,99,87,75,29.79,29.57,16,1,16,0.00
2013-6-28,88.0,75.6,67.9,74.2,68.4,64.1,96,79,58,29.58,29.43,22,1,29,0.00
2013-6-29,86.0,75.0,65.6,68.9,65.8,63.1,94,75,50,29.67,29.48,9,0,13,0.00
2013-6-30,86.9,74.7,66.7,76.5,70.5,66.1,99,88,68,29.80,29.65,12,1,13,0.00
2013-7-1,82.8,76.3,71.6,74.3,71.4,69.2,95,85,71,29.93,29.78,13,2,15,0.00
2013-7-2,83.0,76.7,73.1,75.3,72.3,70.4,96,87,74,30.10,29.92,17,2,19,0.04
2013-7-3,84.2,76.5,72.9,76.6,72.7,70.2,95,88,75,30.18,30.09,10,1,12,0.02
2013-7-4,88.4,79.8,71.8,78.0,73.6,70.6,97,82,68,30.19,30.10,15,2,15,0.00
2013-7-5,89.3,80.8,71.6,77.8,73.8,69.9,97,80,65,30.16,30.06,17,2,17,0.00
2013-7-6,91.0,81.5,71.9,76.8,73.4,69.9,96,78,57,30.15,30.00,12,1,15,0.00
2013-7-7,89.3,75.9,68.9,76.8,71.0,67.4,99,86,63,30.06,29.95,25,1,25,0.92
2013-7-8,86.4,76.1,67.5,73.9,70.0,67.1,100,83,58,30.07,29.99,12,1,13,0.00
2013-7-9,84.5,75.9,70.8,75.9,72.1,69.1,95,88,70,30.07,29.94,7,0,9,0.08
2013-7-10,84.8,77.6,73.0,77.6,73.5,68.9,95,87,69,29.96,29.81,9,0,10,0.02
2013-7-11,83.7,76.4,70.3,72.6,70.0,67.0,95,81,62,29.89,29.80,8,0,9,0.00
2013-7-12,76.6,70.6,65.5,69.6,66.9,64.6,99,88,76,30.03,29.88,9,1,9,0.61
2013-7-13,84.2,72.8,67.9,74.4,69.6,67.0,99,90,69,30.15,30.01,8,0,8,0.05
2013-7-14,89.0,84.4,75.3,77.1,74.4,71.9,90,73,62,30.28,30.22,10,1,10,0.04
2013-7-15,93.5,81.5,70.2,78.3,73.7,69.0,99,79,55,30.27,30.15,8,0,8,0.00
2013-7-16,93.8,82.7,73.6,79.3,74.2,69.9,97,78,47,30.22,30.13,12,1,12,0.00
2013-7-17,95.4,83.3,72.0,78.3,73.9,69.2,97,76,46,30.20,30.04,6,0,7,0.00
2013-7-18,95.3,84.3,73.4,81.9,76.9,72.2,99,80,56,30.08,29.95,6,0,6,0.00
2013-7-19,94.9,83.1,74.2,81.5,76.2,70.1,97,81,56,29.97,29.81,12,1,15,0.00
2013-7-20,92.3,79.8,71.6,78.2,72.3,68.9,95,79,54,29.86,29.75,11,1,12,0.00
2013-7-21,84.3,76.1,70.3,74.7,70.9,67.1,96,84,66,29.91,29.84,9,0,9,0.00
2013-7-22,87.3,75.6,68.1,76.6,72.1,67.5,100,90,66,29.91,29.72,11,0,12,0.66
2013-7-23,85.6,76.7,70.4,75.2,71.1,69.4,100,84,61,29.74,29.62,15,1,15,0.04
2013-7-24,80.9,73.2,64.0,70.1,64.3,58.7,98,75,52,29.90,29.65,14,2,14,0.00
2013-7-25,78.7,66.8,56.4,62.0,57.8,53.3,91,74,51,30.02,29.90,9,1,11,0.00
2013-7-26,82.5,69.3,55.9,64.4,60.4,55.0,98,76,49,30.08,29.98,8,0,9,0.00
2013-7-27,81.2,72.0,62.9,72.8,67.5,59.8,97,86,71,30.01,29.86,11,1,11,0.00
2013-7-28,83.5,73.6,64.0,71.9,68.4,63.1,97,85,61,29.96,29.83,12,0,12,0.89
2013-7-29,79.9,68.6,55.9,63.3,59.3,55.3,100,75,47,30.14,29.96,8,1,11,0.01
2013-7-30,81.8,69.0,56.0,65.9,60.4,54.8,98,76,50,30.21,30.10,10,0,10,0.00
2013-7-31,79.8,69.3,61.4,71.2,65.6,60.3,98,88,69,30.12,29.96,12,0,14,0.00
2013-8-1,83.1,73.1,67.4,72.9,69.2,66.7,99,88,67,29.96,29.77,9,0,12,0.12
2013-8-2,85.2,73.9,62.9,69.7,64.5,60.6,99,76,46,29.93,29.84,14,1,15,0.00
2013-8-3,71.1,67.7,64.8,69.1,65.4,61.5,98,92,85,29.94,29.89,8,0,8,0.24
2013-8-4,78.5,69.2,59.6,64.6,60.1,54.7,100,76,47,30.02,29.90,17,2,19,0.00
2013-8-5,78.7,66.7,53.8,62.3,57.7,52.4,98,75,48,30.09,29.98,6,0,7,0.00
2013-8-6,77.8,68.7,63.0,70.1,65.1,59.9,98,89,74,30.03,29.96,8,0,8,0.96
2013-8-7,84.0,73.6,68.3,75.1,70.3,66.6,98,90,72,30.02,29.92,13,1,13,1.02
2013-8-8,81.7,74.3,68.1,76.4,72.5,67.8,100,94,82,29.98,29.92,8,0,10,0.18
2013-8-9,83.6,76.4,73.2,77.9,74.5,72.6,99,94,80,29.92,29.83,17,1,17,0.51
2013-8-10,83.1,76.4,68.4,69.1,67.1,63.5,93,74,55,30.05,29.98,5,0,5,0.00
2013-8-11,85.0,74.3,65.5,74.1,68.4,64.3,98,83,62,30.08,29.95,7,0,10,0.00
2013-8-12,86.1,75.8,66.3,73.5,69.7,65.4,99,83,59,29.99,29.87,7,0,7,0.00
2013-8-13,84.5,74.9,67.4,72.8,69.0,59.8,98,83,63,29.87,29.70,12,1,13,0.36
2013-8-14,72.0,64.6,55.7,59.7,53.6,50.3,90,68,53,30.08,29.81,22,4,22,0.00
2013-8-15,75.7,62.8,49.3,58.3,53.5,48.2,100,75,45,30.18,30.07,8,0,9,0.00
2013-8-16,79.1,64.6,50.6,63.2,56.3,49.1,98,77,47,30.16,30.10,7,0,7,0.00
2013-8-17,79.3,67.2,53.2,64.2,58.8,51.9,97,76,53,30.24,30.16,8,0,10,0.00
2013-8-18,70.5,65.5,61.9,63.8,62.0,59.6,98,89,72,30.23,30.14,8,1,9,0.14
2013-8-19,77.7,66.7,58.8,70.7,64.4,58.0,99,93,78,30.15,30.03,6,0,6,0.01
2013-8-20,84.5,71.8,61.3,72.3,66.2,60.4,100,84,54,30.16,30.06,6,0,8,0.00
2013-8-21,87.1,73.7,62.3,76.6,68.9,61.6,99,86,64,30.17,30.02,12,0,14,0.00
2013-8-22,85.9,75.6,66.9,73.4,69.0,65.1,98,81,62,30.06,29.88,11,0,14,0.00
2013-8-23,73.9,68.3,64.2,70.3,66.7,63.3,99,95,85,30.10,29.91,4,0,5,0.58
2013-8-24,80.8,68.4,59.0,66.6,61.6,57.0,100,81,53,30.30,30.10,8,0,9,0.00
2013-8-25,81.0,70.4,61.4,68.1,61.9,57.2,94,76,54,30.37,30.21,7,0,7,0.00
2013-8-26,86.0,77.7,69.3,70.6,65.9,59.6,84,67,55,30.23,29.93,11,0,11,0.00
2013-8-27,87.2,67.6,0.0,77.0,59.6,0.0,94,61,66,29.95,29.84,10,0,11,0.04
2013-8-28,75.9,19.5,0.0,74.5,19.0,0.0,97,24,93,29.88,29.77,3,0,3,0.00
2013-8-29,85.5,53.1,0.0,73.6,47.6,0.0,100,50,63,29.97,29.81,7,0,7,0.00
2013-8-30,86.5,82.1,68.1,74.2,72.7,59.1,100,74,63,29.99,29.81,11,1,11,0.00
2013-8-31,87.8,83.0,75.0,76.9,73.9,71.9,91,74,64,29.83,29.73,8,0,8,0.00
2013-9-1,88.0,82.6,70.3,77.0,74.6,69.5,98,77,63,29.80,29.70,7,0,7,0.00
2013-9-2,89.4,84.6,70.8,76.9,74.7,64.0,99,73,59,29.77,29.66,9,0,10,0.00
2013-9-3,87.0,81.1,69.5,73.4,66.2,56.6,91,61,47,29.95,29.69,16,3,16,0.00
2013-9-4,81.0,77.1,57.0,60.8,59.0,40.2,98,55,44,30.06,29.94,8,3,10,0.00
2013-9-5,80.6,77.6,60.0,66.0,59.8,55.9,98,56,46,30.10,29.98,15,2,15,0.00
2013-9-6,77.6,72.2,51.6,57.5,53.1,47.5,95,52,41,30.24,30.10,7,0,10,0.00
2013-9-7,80.4,73.7,52.8,63.9,57.0,32.0,98,57,45,30.11,29.89,7,0,8,0.00
2013-9-8,84.8,78.8,62.7,70.5,65.6,61.7,97,65,58,30.02,29.84,12,1,12,0.00
2013-9-9,80.5,74.7,62.5,67.2,64.0,50.2,89,70,64,30.17,30.02,9,0,11,0.00
2013-9-10,91.3,77.9,66.1,76.9,71.0,64.6,97,81,60,30.14,30.02,10,1,10,0.00
2013-9-11,92.9,80.8,71.6,78.1,73.7,70.1,97,80,58,30.11,29.95,9,0,9,0.00
2013-9-12,92.0,77.7,69.1,76.0,70.4,64.8,99,80,51,29.96,29.69,13,1,17,0.00
2013-9-13,76.3,66.8,55.9,66.0,58.0,48.1,94,75,45,29.93,29.68,19,3,20,0.00
2013-9-14,66.5,56.5,48.0,49.2,46.9,44.7,92,72,50,30.15,29.93,12,2,14,0.00
2013-9-15,76.5,59.9,43.8,59.0,52.2,42.7,98,78,51,30.21,30.04,9,0,9,0.00
2013-9-16,70.7,62.5,55.2,60.6,57.7,52.9,98,85,64,30.22,30.00,12,1,12,0.20
2013-9-17,68.2,56.0,45.1,53.4,46.3,41.5,94,72,45,30.41,30.22,8,0,8,0.00
2013-9-18,70.3,55.2,40.0,53.3,47.3,38.7,97,77,52,30.31,30.15,8,0,8,0.00
2013-9-19,77.1,61.2,46.7,62.3,54.4,45.3,97,80,56,30.16,30.03,8,0,9,0.00
2013-9-20,80.3,66.5,53.1,66.5,60.2,52.2,99,82,58,30.05,29.90,10,1,12,0.00
2013-9-21,68.0,64.4,60.1,65.2,62.2,59.5,99,93,86,29.91,29.64,17,2,19,0.52
2013-9-22,71.1,60.8,54.1,59.7,54.4,49.9,100,82,54,29.94,29.70,15,2,15,0.01
2013-9-23,64.9,55.9,45.9,50.4,46.4,43.2,92,71,54,30.08,29.93,14,2,14,0.00
2013-9-24,71.5,53.8,39.2,52.2,46.1,38.0,98,78,44,30.11,29.93,8,0,11,0.00
2013-9-25,74.3,51.5,42.4,54.1,45.7,41.3,100,84,43,29.97,29.87,6,0,7,0.00
2013-9-26,75.3,58.2,45.2,58.3,51.1,44.1,100,80,46,30.05,29.91,6,0,7,0.00
2013-9-27,71.8,58.6,48.0,60.8,54.1,46.6,98,86,64,30.20,30.05,6,0,6,0.00
2013-9-28,68.0,58.7,50.3,59.1,54.0,48.1,98,86,62,30.29,30.19,8,0,8,0.00
2013-9-29,73.2,56.6,45.2,58.9,50.6,44.2,99,83,48,30.19,30.03,7,0,10,0.00
2013-9-30,76.0,60.1,46.3,59.7,53.2,45.5,99,80,51,30.07,29.95,7,0,7,0.00
2013-10-1,80.4,65.8,52.8,65.7,58.0,51.8,98,78,51,30.05,29.93,15,0,15,0.00
2013-10-2,84.6,68.7,56.2,66.4,60.0,54.8,96,76,49,30.06,29.96,11,1,15,0.00
2013-10-3,82.8,69.5,59.2,68.2,62.8,57.6,96,81,58,30.10,29.99,6,0,7,0.00
2013-10-4,85.7,71.0,59.8,69.6,64.2,59.0,99,81,55,30.07,29.97,10,0,10,0.00
2013-10-5,87.0,73.9,63.3,70.5,66.0,61.8,97,78,52,30.06,29.94,11,0,12,0.00
2013-10-6,88.4,74.9,61.9,71.1,65.6,60.6,98,75,49,29.97,29.84,17,2,17,0.00
2013-10-7,73.7,64.8,53.2,68.5,59.6,46.5,97,84,61,30.04,29.67,18,2,24,0.56
2013-10-8,68.8,56.3,43.4,51.8,47.0,41.6,96,72,49,30.27,30.04,12,0,12,0.00
2013-10-9,62.1,53.8,45.9,51.2,47.0,43.0,95,79,50,30.32,30.23,6,0,7,0.01
2013-10-10,54.6,53.0,51.7,53.8,50.8,47.6,99,92,80,30.23,30.01,11,2,13,2.92
2013-10-11,59.6,56.2,52.8,59.6,56.2,52.5,100,100,99,30.01,29.95,10,2,10,0.72
2013-10-12,69.8,61.5,57.3,63.2,59.3,54.9,100,93,71,30.16,29.98,9,0,12,0.20
2013-10-13,58.4,57.4,56.5,58.1,57.0,55.9,100,99,96,30.30,30.15,6,0,6,0.47
2013-10-14,67.5,58.5,53.2,57.8,55.1,52.7,99,89,68,30.32,30.20,7,0,8,0.00
2013-10-15,70.2,57.9,50.1,60.3,53.4,48.8,100,86,59,30.22,30.04,5,0,6,0.00
2013-10-16,70.8,62.0,52.7,62.6,58.3,48.9,96,88,73,30.05,29.86,8,0,9,0.00
2013-10-17,74.5,64.8,59.0,65.6,60.9,49.6,98,88,70,29.87,29.65,19,1,21,0.10
2013-10-18,65.1,56.2,45.1,49.6,44.6,41.4,91,66,48,29.99,29.83,16,2,17,0.00
2013-10-19,62.1,50.9,40.7,56.7,47.3,39.7,100,88,69,29.97,29.73,16,1,17,0.03
2013-10-20,61.6,50.8,38.9,44.3,39.3,34.8,90,66,44,30.07,29.86,16,1,16,0.00
2013-10-21,67.4,51.7,35.7,48.0,41.7,34.2,100,72,44,30.12,29.90,15,1,16,0.00
2013-10-22,60.1,52.5,40.0,50.7,43.5,33.7,88,72,44,29.90,29.81,15,1,15,0.00
2013-10-23,50.1,42.7,35.2,39.9,37.0,33.4,95,81,60,29.89,29.67,11,1,12,0.01
2013-10-24,48.4,41.5,36.2,37.3,33.4,29.5,88,73,51,30.12,29.89,19,1,19,0.00
2013-10-25,51.9,40.0,29.1,37.6,31.6,26.6,95,73,51,30.30,30.12,18,2,19,0.00
2013-10-26,55.7,43.1,30.6,34.9,30.9,27.2,88,65,39,30.29,29.90,18,2,18,0.00
2013-10-27,58.2,50.3,39.5,39.5,35.7,32.8,83,58,43,30.05,29.94,14,1,22,0.00
2013-10-28,59.7,47.0,30.5,43.5,37.8,28.9,95,72,49,30.26,30.17,6,0,6,0.00
2013-10-29,61.1,45.7,31.9,45.2,39.1,30.4,100,79,52,30.39,30.26,6,0,6,0.00
2013-10-30,67.8,56.6,45.0,56.3,50.3,41.4,96,80,64,30.29,30.10,9,0,9,0.05
2013-10-31,67.3,62.1,57.1,60.7,58.3,55.0,95,88,75,30.13,29.67,18,2,18,0.05
2013-11-1,73.2,64.3,51.7,63.1,54.9,46.4,98,74,43,29.67,29.48,24,3,24,0.26
2013-11-2,60.9,52.8,44.4,51.0,44.5,38.9,96,75,53,29.87,29.63,17,2,18,0.00
2013-11-3,54.9,47.6,35.8,42.2,34.6,26.3,80,63,35,30.44,29.87,18,3,18,0.00
2013-11-4,45.1,36.0,26.2,28.2,25.6,21.7,85,67,48,30.62,30.43,7,0,7,0.00
2013-11-5,53.4,43.5,30.2,44.9,36.3,25.9,89,76,63,30.61,30.41,7,0,7,0.00
2013-11-6,67.8,57.9,48.5,53.9,49.9,44.3,91,75,60,30.42,29.97,19,3,19,0.00
2013-11-7,59.5,53.0,40.8,54.3,44.5,25.9,95,74,50,30.07,29.83,21,4,25,0.19
2013-11-8,48.7,41.2,30.5,32.0,27.6,24.2,80,59,42,30.30,30.05,28,3,29,0.00
2013-11-9,54.4,41.3,26.7,33.7,29.5,23.0,91,65,44,30.32,29.99,15,2,16,0.00
2013-11-10,58.3,47.8,41.2,39.4,32.3,29.2,69,56,42,30.22,29.95,25,4,25,0.00
2013-11-11,56.4,45.4,30.5,35.8,31.5,26.0,88,60,41,30.27,29.98,10,1,12,0.00
2013-11-12,51.5,38.0,28.8,39.4,24.7,16.8,81,59,45,30.39,29.96,23,6,23,0.00
2013-11-13,41.7,33.8,28.7,24.5,21.2,19.1,71,60,43,30.48,30.35,17,3,20,0.00
2013-11-14,58.2,39.6,25.7,28.1,21.4,16.7,72,50,23,30.35,30.18,12,1,12,0.00
2013-11-15,60.0,42.9,26.0,34.2,27.0,21.6,89,57,27,30.26,30.14,6,0,7,0.00
2013-11-16,58.2,49.4,41.6,50.4,44.9,33.7,95,85,59,30.28,30.17,10,1,11,0.01
2013-11-17,62.6,56.8,51.4,59.5,54.6,50.0,96,92,85,30.18,29.64,19,4,23,0.01
2013-11-18,64.1,57.7,48.0,59.7,38.5,29.4,91,51,31,29.92,29.63,26,5,26,0.12
2013-11-19,48.0,41.1,33.4,31.2,28.0,25.0,71,59,49,30.36,29.92,23,6,23,0.00
2013-11-20,46.3,34.7,24.4,28.3,23.3,16.5,92,65,39,30.55,30.35,9,0,9,0.00
2013-11-21,48.4,37.8,28.8,39.5,31.9,23.8,89,79,67,30.56,30.33,7,0,8,0.00
2013-11-22,56.7,48.9,41.2,50.5,45.1,37.7,94,87,76,30.34,29.99,16,1,17,0.00
2013-11-23,51.7,39.8,27.6,44.8,27.2,11.3,79,61,46,30.22,30.03,25,6,26,0.00
2013-11-24,28.7,24.7,20.4,12.8,10.2,7.0,62,54,45,30.50,30.21,27,8,32,0.00
2013-11-25,37.2,27.2,15.7,15.8,11.9,7.9,77,54,35,30.54,30.28,16,2,16,0.00
2013-11-26,35.1,33.5,32.3,31.5,24.8,15.6,95,72,46,30.29,30.04,11,0,11,0.38
2013-11-27,38.5,34.4,27.4,36.1,27.9,16.6,98,77,62,30.04,29.56,25,8,28,0.14
2013-11-28,35.2,29.6,24.5,22.8,17.9,14.5,76,62,51,30.45,30.03,23,4,23,0.00
2013-11-29,39.8,30.3,24.0,26.0,21.8,18.6,89,71,53,30.71,30.44,14,1,15,0.00
2013-11-30,34.7,27.5,18.7,24.0,20.6,16.0,93,76,59,30.70,30.34,8,1,12,0.00
2013-12-1,38.8,30.9,19.3,30.0,25.1,16.5,92,79,68,30.34,30.00,5,0,6,0.00
2013-12-2,44.9,38.1,34.2,35.8,32.4,29.5,86,80,69,30.00,29.85,3,0,3,0.00
2013-12-3,53.2,40.9,33.2,40.8,35.3,30.6,93,81,61,29.95,29.86,7,0,8,0.00
2013-12-4,56.9,44.1,31.2,48.0,40.0,29.6,96,86,66,30.07,29.94,9,0,9,0.00
2013-12-5,66.5,56.7,43.9,58.7,53.5,42.5,99,89,74,30.02,29.87,13,1,14,0.04
2013-12-6,59.0,44.6,35.6,57.9,43.5,34.8,98,96,94,30.17,29.83,16,3,17,2.04
2013-12-7,37.5,34.1,27.7,34.8,29.0,21.4,97,82,68,30.53,30.13,19,4,20,0.01
2013-12-8,28.1,25.9,24.3,27.0,22.2,18.3,100,86,74,30.57,30.30,10,0,10,0.00
2013-12-9,36.6,31.7,28.1,34.7,30.5,27.1,98,95,89,30.31,30.02,5,0,5,0.26
2013-12-10,39.3,31.2,24.0,36.4,27.7,17.5,98,87,68,30.20,29.98,16,1,17,0.25
2013-12-11,35.3,27.0,20.3,21.3,17.7,14.9,91,69,51,30.38,30.19,11,1,14,0.09
2013-12-12,31.9,25.8,19.6,24.3,12.4,6.6,90,57,37,30.42,30.22,18,3,18,0.00
2013-12-13,42.6,30.6,21.2,21.4,15.6,9.2,77,54,40,30.29,30.18,12,2,13,0.11
2013-12-14,37.1,31.6,27.4,34.1,28.7,21.1,97,89,77,30.31,29.72,12,1,12,0.27
2013-12-15,42.0,33.4,29.0,37.8,28.3,22.7,98,83,63,29.92,29.63,16,2,18,0.18
2013-12-16,34.7,30.7,27.4,26.0,23.2,19.4,85,73,65,30.16,29.92,13,1,16,0.00
2013-12-17,37.4,31.9,27.7,32.0,28.2,25.2,93,86,79,30.12,29.91,9,1,11,0.02
2013-12-18,37.1,31.1,23.5,27.8,22.8,18.6,95,72,58,30.20,29.98,14,2,17,0.00
2013-12-19,52.2,37.9,23.1,33.6,27.0,19.1,88,66,48,30.17,30.03,10,1,10,0.01
2013-12-20,52.8,46.8,39.7,37.2,33.5,30.3,70,60,50,30.06,29.93,7,1,12,0.00
2013-12-21,66.5,57.2,47.0,59.2,48.1,36.7,82,72,62,29.96,29.81,12,3,14,0.00
2013-12-22,68.5,63.4,58.5,63.6,59.2,55.1,97,86,68,29.94,29.72,20,4,22,0.20
2013-12-23,58.5,50.0,34.3,56.9,45.3,25.3,98,84,66,30.23,29.84,21,4,21,0.47
2013-12-24,38.8,30.4,21.3,28.4,19.2,8.7,82,63,46,30.47,30.18,18,5,26,0.00
2013-12-25,30.2,23.9,17.4,16.5,13.0,9.4,76,63,52,30.57,30.32,13,3,18,0.00
2013-12-26,44.6,32.4,24.5,28.2,20.2,15.9,74,61,45,30.34,30.20,19,2,19,0.00
2013-12-27,49.7,35.6,23.0,26.7,20.8,17.3,82,57,31,30.39,30.28,16,1,16,0.00
2013-12-28,57.4,42.4,30.5,32.1,26.8,21.6,72,55,36,30.30,30.07,14,2,14,0.00
2013-12-29,46.1,43.7,41.0,44.4,38.7,27.9,99,85,51,30.08,29.53,13,1,15,1.12
2013-12-30,46.5,37.8,26.9,41.3,30.1,19.8,89,74,65,30.16,29.79,17,3,21,0.00
2013-12-31,40.7,30.5,25.6,29.0,21.2,16.9,82,69,51,30.30,30.08,28,2,29,0.00
2014-1-1,48.1,33.4,24.0,29.2,24.3,17.0,86,70,46,30.36,30.08,12,1,12,0.00
2014-1-2,33.2,29.3,25.1,29.9,26.4,22.8,95,89,82,30.09,29.63,5,0,6,0.00